Regional Weather Roundup
Issued by NWS

Home | Current Version | Previous Version | Text Only | Print | Product List | Glossary Off
Versions: 1 2 3 4 5 6 7 8 9 10 11 12 13 14 15 16 17 18 19 20 21 22 23 24 25 26 27 28 29 30 31 32 33 34 35 36 37 38 39 40 41 42 43 44 45 46 47 48 49 50

521
ASUS43 KTOP 241359
RWRKS

WEATHER ROUNDUP FOR KANSAS
NATIONAL WEATHER SERVICE GOODLAND KS
900 AM CDT SAT JUN 24 2017

NOTE:  "FAIR" INDICATES FEW OR NO CLOUDS BELOW 12,000 FEET WITH NO
SIGNIFICANT WEATHER AND/OR OBSTRUCTIONS TO VISIBILITY.

KSZ001>006-013>018-027>032-041>047-241500-
NORTHWEST KANSAS

CITY           SKY/WX    TMP DP  RH WIND       PRES   REMARKS
GOODLAND       CLOUDY    62  51  67 SE12      30.29R
HAYS           SUNNY     65  52  62 E10       30.27R
HILL CITY      MOSUNNY   62  49  62 CALM      30.29R
RUSSELL        SUNNY     66  50  56 E6        30.25R
$$

KSZ061>065-074>080-084>089-241500-
SOUTHWEST KANSAS

CITY           SKY/WX    TMP DP  RH WIND       PRES   REMARKS
DODGE CITY     CLOUDY    68  52  56 SE13      30.27R
ELKHART          N/A     64  45  50 SE3         N/A
GARDEN CITY    CLOUDY    63  53  70 E7        30.27R
GREAT BEND     PTSUNNY   70  51  51 E12       30.27R
LIBERAL        CLOUDY    68  51  54 E7        30.28R
$$

KSZ066>073-081>083-090>101-241500-
SOUTHEAST KANSAS

CITY           SKY/WX    TMP DP  RH WIND       PRES   REMARKS
CHANUTE        CLOUDY    68  57  68 N3        30.22R
COFFEYVILLE    CLOUDY    71  57  61 E3        30.22R
HUTCHINSON     SUNNY     70  52  52 E3        30.25R
MEDICINE LODGE   N/A     67  55  65 E3        30.26R
NEWTON         SUNNY     71  51  49 E6        30.26R
PARSONS        CLOUDY    72  55  55 CALM      30.23R
WICHITA INTL   CLOUDY    70  56  61 CALM      30.25R
WICHITA JABRA  MOSUNNY   70  57  63 S3        30.24R
WICHITA MCCONL LGT RAIN  70  55  60 CALM      30.25R
WINFIELD       CLOUDY    70  56  61 SE6       30.26R
$$

KSZ007>012-019>026-033>040-048>060-102>105-241500-
NORTHEAST KANSAS

CITY           SKY/WX    TMP DP  RH WIND       PRES   REMARKS
CONCORDIA      SUNNY     66  44  45 CALM      30.25R
EMPORIA        SUNNY     68  51  54 NE6       30.24R
LAWRENCE       SUNNY     69  51  52 N5        30.22R
MANHATTAN      SUNNY     66  52  60 CALM      30.23R
OLATHE IND     SUNNY     68  55  63 N7        30.22R
OLATHE EXE     SUNNY     68  51  54 N9        30.21R
SALINA         SUNNY     70  48  45 VRB5      30.25R
TOPEKA BILLARD SUNNY     67  51  56 CALM      30.23R
TOPEKA FORBES  SUNNY     69  50  50 CALM      30.23R
$$




USA.gov is the U.S. government's official web portal to all federal, state and local government web resources and services.